Weather History for Seward, AK

Change the Weather History Date:

Sunday, December 11, 2011

  Actual Average Record
Temperature  
Mean Temperature 36 °F -  
Max Temperature 39 °F 31 °F 43 °F (1962)
Min Temperature 32 °F 21 °F -4 °F (1964)
Degree Days  
Heating Degree Days 30    
Moisture  
Dew Point 31 °F    
Average Humidity 87    
Maximum Humidity 96    
Minimum Humidity 65    
Precipitation  
Precipitation 1.58 in - - ()
Sea Level Pressure  
Sea Level Pressure 29.24 in    
Wind  
Wind Speed 6 mph (NW)    
Max Wind Speed 22 mph    
Max Gust Speed 34 mph    
Visibility 6 miles    
Events Rain , Snow    
Averages and records for this station are not official NWS values.
T = Trace of Precipitation, MM = Missing Value Source: NWS Daily Summary

Daily Weather History Graph

Daily Weather History Graph

Search for Another Location

Airport:

Trip Planner

Search our weather history database for the weather conditions in past years. The results will help you decide how hot, cold, wet, or windy it might be!

Date:

Astronomy

Dec. 11, 2011 Rise Set
Actual Time 9:51 AM AKST 3:50 PM AKST
Civil Twilight 8:53 AM AKST 4:47 PM AKST
Nautical Twilight 7:57 AM AKST 5:44 PM AKST
Astronomical Twilight 7:05 AM AKST 6:35 PM AKST
Moon 5:14 PM AKST (12/11) 10:45 AM AKST (12/11)
Length of Visible Light 7h 53m
Length of Day
5h 59m
Full, 98% of the Moon is Illuminated
Dec 11
Full
Dec 17
Last Quarter
Dec 24
New
Dec 31
First Quarter
Jan 8
Full

Hourly Weather History & Observations

Time (AKST) Temp. Windchill Dew Point Humidity Pressure Visibility Wind Dir Wind Speed Gust Speed Precip Events Conditions
12:46 AM 35.6 °F 32.8 °F 32.0 °F 87% 29.73 in 10.0 mi NNE 3.5 mph - 0.02 in Rain Light Rain
12:53 AM 35.1 °F - 32.0 °F 89% 29.73 in 10.0 mi Calm Calm - 0.03 in Rain Light Rain
1:53 AM 34.0 °F 31.0 °F 30.9 °F 89% 29.75 in 9.0 mi NW 3.5 mph - 0.06 in Rain Light Rain
2:21 AM 35.6 °F 32.8 °F 32.0 °F 87% 29.74 in 10.0 mi NW 3.5 mph - 0.00 in   Overcast
2:38 AM 35.6 °F 31.7 °F 32.0 °F 87% 29.74 in 10.0 mi West 4.6 mph - 0.01 in Rain Light Rain
3:53 AM 34.0 °F - 32.0 °F 92% 29.73 in 10.0 mi Calm Calm - 0.00 in   Overcast
4:53 AM 33.1 °F - 32.0 °F 96% 29.70 in 10.0 mi Calm Calm - N/A   Overcast
5:53 AM 33.1 °F - 30.9 °F 92% 29.64 in 10.0 mi Calm Calm - N/A   Overcast
6:43 AM 33.8 °F 30.8 °F 30.2 °F 87% 29.60 in 8.0 mi NW 3.5 mph - 0.01 in Rain Light Rain
6:53 AM 33.1 °F 28.7 °F 30.9 °F 92% 29.59 in 8.0 mi North 4.6 mph - 0.02 in Rain Light Rain
7:53 AM 33.1 °F - 32.0 °F 96% 29.52 in 7.0 mi Calm Calm - 0.07 in Rain Light Rain
8:27 AM 33.8 °F - 32.0 °F 93% 29.50 in 5.0 mi Calm Calm - 0.05 in Snow Light Snow
8:44 AM 33.8 °F 29.6 °F 30.2 °F 87% 29.49 in 2.0 mi SW 4.6 mph - 0.10 in Snow Light Snow
8:53 AM 32.0 °F - 30.9 °F 96% 29.48 in 1.5 mi Calm Calm - 0.12 in Snow Light Snow
9:00 AM 32.0 °F 28.7 °F 30.2 °F 93% 29.47 in 1.5 mi SE 3.5 mph - 0.02 in Snow Light Snow
9:15 AM 32.0 °F - 30.2 °F 93% 29.45 in 1.8 mi Calm Calm - 0.05 in Snow Light Snow
9:17 AM 32.0 °F - 30.2 °F 93% 29.45 in 2.0 mi Calm Calm - 0.06 in Snow Light Snow
9:21 AM 32.0 °F - 30.2 °F 93% 29.44 in 1.8 mi Calm Calm - 0.07 in Snow Light Snow
9:26 AM 32.0 °F 28.7 °F 30.2 °F 93% 29.44 in 1.8 mi Variable 3.5 mph - 0.08 in Snow Light Snow
9:30 AM 33.8 °F 29.6 °F 30.2 °F 87% 29.43 in 3.0 mi Variable 4.6 mph - 0.08 in Snow Light Snow
9:51 AM 35.6 °F 28.0 °F 32.0 °F 87% 29.40 in 6.0 mi SW 10.4 mph - 0.11 in Rain Rain
9:53 AM 35.1 °F 27.9 °F 32.0 °F 89% 29.40 in 6.0 mi SW 9.2 mph - 0.12 in Rain Rain
10:53 AM 37.0 °F 28.1 °F 36.0 °F 96% 29.33 in 6.0 mi SSW 15.0 mph 24.2 mph 0.13 in Rain Rain
11:12 AM 37.4 °F 27.8 °F 33.8 °F 87% 29.29 in 7.0 mi SSW 17.3 mph 25.3 mph 0.02 in Rain Light Rain
11:53 AM 37.9 °F 27.3 °F 33.1 °F 83% 29.24 in 5.0 mi SSW 21.9 mph 34.5 mph 0.11 in Rain Rain
12:51 PM 37.4 °F 28.2 °F 33.8 °F 87% 29.21 in 4.0 mi SSW 16.1 mph 21.9 mph 0.17 in Rain Rain
12:53 PM 37.9 °F 29.6 °F 33.1 °F 83% 29.21 in 4.0 mi SSW 13.8 mph 21.9 mph 0.18 in Rain Rain
1:37 PM 33.8 °F 27.7 °F 30.2 °F 87% 29.13 in 2.0 mi WNW 6.9 mph - 0.23 in Snow Light Snow
1:48 PM 33.8 °F 24.3 °F 30.2 °F 87% 29.12 in 3.0 mi NW 13.8 mph - 0.29 in Snow Light Snow
1:53 PM 35.1 °F 26.4 °F 30.9 °F 85% 29.11 in 3.0 mi NNW 12.7 mph 20.7 mph 0.32 in Snow Light Snow
2:00 PM 33.8 °F 24.3 °F 30.2 °F 87% 29.09 in 2.5 mi NNW 13.8 mph 18.4 mph 0.03 in Snow Light Snow
2:38 PM 35.6 °F 27.5 °F 32.0 °F 87% 29.04 in 3.0 mi NW 11.5 mph - 0.17 in Rain Rain
2:53 PM 34.0 °F 27.2 °F 30.9 °F 89% 29.02 in 3.0 mi WNW 8.1 mph - 0.22 in Rain Rain
3:05 PM 33.8 °F 25.8 °F 30.2 °F 87% 29.00 in 2.5 mi WNW 10.4 mph - 0.05 in Snow Light Snow
3:21 PM 35.6 °F 29.2 °F 32.0 °F 87% 28.97 in 3.0 mi WNW 8.1 mph - 0.10 in Rain Rain
3:29 PM 35.6 °F 26.6 °F 32.0 °F 87% 28.95 in 4.0 mi NW 13.8 mph 20.7 mph 0.11 in Rain Light Rain
3:45 PM 35.6 °F 27.1 °F 32.0 °F 87% 28.92 in 5.0 mi WNW 12.7 mph 19.6 mph 0.14 in Rain Rain
3:53 PM 35.1 °F 27.4 °F 32.0 °F 89% 28.92 in 7.0 mi NNW 10.4 mph 19.6 mph 0.14 in Rain Light Rain
4:53 PM 36.0 °F 27.1 °F 32.0 °F 86% 28.84 in 10.0 mi NNW 13.8 mph - 0.02 in Rain Light Rain
6:53 PM 37.0 °F 29.8 °F 32.0 °F 82% 28.76 in 10.0 mi NNW 10.4 mph - N/A Rain Light Rain
7:11 PM 37.4 °F 28.9 °F 30.2 °F 75% 28.74 in 10.0 mi North 13.8 mph 20.7 mph 0.01 in Rain Light Rain
7:53 PM 37.0 °F 30.4 °F 32.0 °F 82% 28.70 in 10.0 mi NW 9.2 mph 26.5 mph 0.02 in Rain Light Rain
8:18 PM 37.4 °F 29.8 °F 30.2 °F 75% 28.70 in 10.0 mi NW 11.5 mph 20.7 mph 0.01 in   Overcast
8:53 PM 37.0 °F 29.8 °F 30.9 °F 79% 28.72 in 10.0 mi NNW 10.4 mph - 0.01 in   Overcast
9:53 PM 37.9 °F 31.5 °F 30.9 °F 76% 28.71 in 10.0 mi North 9.2 mph - N/A   Overcast
10:53 PM 39.9 °F 32.1 °F 28.9 °F 65% 28.74 in 10.0 mi North 13.8 mph - N/A   Overcast
11:46 PM 37.4 °F 27.8 °F 30.2 °F 75% 28.80 in 10.0 mi North 17.3 mph 25.3 mph 0.00 in Rain Light Rain
11:53 PM 37.0 °F 27.4 °F 32.0 °F 82% 28.81 in 9.0 mi North 17.3 mph - 0.01 in Rain Light Rain